EDT,Max TemperatureF,Mean TemperatureF,Min TemperatureF,Max Dew PointF,MeanDew PointF,Min DewpointF,Max Humidity, Mean Humidity, Min Humidity, Max Sea Level PressureIn, Mean Sea Level PressureIn, Min Sea Level PressureIn, Max VisibilityMiles, Mean VisibilityMiles, Min VisibilityMiles, Max Wind SpeedMPH, Mean Wind SpeedMPH, Max Gust SpeedMPH,PrecipitationIn, CloudCover, Events, WindDirDegrees
2012-9-1,89,80,72,72,70,67,93,73,49,30.20,30.14,30.07,10,10,10,12,2,,0.00,0,,282
2012-9-2,87,79,72,73,71,69,97,82,57,30.09,30.03,29.95,10,9,2,10,4,20,0.24,3,Rain-Thunderstorm,202
2012-9-3,82,76,71,72,70,68,100,89,62,30.05,29.99,29.92,10,8,0,13,4,20,0.86,6,Fog-Rain-Thunderstorm,186
2012-9-4,78,74,70,72,70,69,100,94,82,30.01,29.97,29.91,10,6,0,9,4,,0.10,8,Fog-Rain,163
2012-9-5,82,76,71,72,70,66,100,85,62,30.02,29.96,29.89,10,8,1,8,2,,0.01,6,,211
2012-9-6,84,78,71,72,71,69,97,83,61,30.05,29.97,29.91,10,9,4,12,6,,0.00,5,,252
2012-9-7,89,79,70,70,68,65,93,72,48,30.00,29.93,29.86,10,10,8,7,3,,0.00,0,,111
2012-9-8,84,75,66,72,68,59,97,81,56,29.89,29.84,29.77,10,9,2,14,5,24,0.50,4,Rain-Thunderstorm,275
2012-9-9,81,70,60,58,54,43,83,60,26,30.03,29.93,29.85,10,10,10,9,5,,0.00,2,,331
2012-9-10,80,70,61,56,53,51,72,56,36,30.14,30.10,30.03,10,10,10,9,5,,0.00,2,,88
2012-9-11,79,71,64,58,56,53,78,64,42,30.29,30.22,30.15,10,10,10,9,3,,0.00,5,,98
2012-9-12,78,70,64,60,57,54,84,67,46,30.36,30.29,30.25,10,10,10,8,4,17,0.00,4,,98
2012-9-13,75,68,61,58,56,54,83,66,50,30.34,30.29,30.23,10,10,10,12,5,,0.00,2,,68
2012-9-14,81,72,66,62,58,55,78,64,45,30.27,30.22,30.18,10,10,10,9,4,,0.00,6,,51
2012-9-15,84,73,64,64,60,57,90,65,42,30.21,30.15,30.10,10,10,10,6,2,,0.00,3,,208
2012-9-16,81,74,68,67,63,60,87,72,50,30.13,30.08,30.04,10,10,8,8,1,,0.01,5,Rain,138
2012-9-17,80,72,66,70,67,64,100,91,69,30.10,30.00,29.83,10,7,1,12,6,21,0.28,7,Rain,112
2012-9-18,75,70,63,70,66,57,100,91,64,29.91,29.79,29.73,10,8,0,13,6,20,1.17,7,Fog-Rain-Thunderstorm,233
2012-9-19,77,66,55,60,55,51,89,72,50,30.09,30.02,29.92,10,10,10,9,5,,0.00,2,,65
2012-9-20,75,68,60,61,59,57,94,81,57,30.19,30.13,30.06,10,10,10,12,7,,0.00,5,,90
2012-9-21,81,72,62,64,61,58,94,77,45,30.14,30.08,29.99,10,10,6,10,2,,0.00,5,,225
2012-9-22,82,72,63,62,60,51,90,68,49,30.06,30.02,29.97,10,10,10,14,6,22,0.00,0,,279
2012-9-23,77,66,55,50,44,37,80,48,25,30.16,30.11,30.06,10,10,10,13,6,18,0.00,0,,302
2012-9-24,73,61,50,47,42,37,69,50,36,30.22,30.18,30.14,10,10,10,14,6,21,0.00,0,,50
2012-9-25,79,66,53,57,52,46,83,67,43,30.26,30.21,30.17,10,10,10,6,3,,0.00,2,,64
2012-9-26,80,68,57,58,56,53,90,67,39,30.24,30.20,30.15,10,10,8,6,1,,0.00,0,,187
2012-9-27,82,70,59,61,57,55,93,65,42,30.23,30.17,30.12,10,10,10,7,2,,0.00,0,,288
2012-9-28,82,72,63,64,62,59,90,71,47,30.14,30.08,30.01,10,10,10,8,2,,0.00,0,,270
2012-9-29,77,70,66,65,63,62,90,80,64,30.03,29.96,29.89,10,10,10,10,3,,0.00,2,Rain,286
2012-9-30,69,65,62,64,61,59,97,88,73,29.95,29.89,29.82,10,8,3,9,6,,0.68,6,Rain,83